TimeEDT,TemperatureF,Dew PointF,Humidity,Sea Level PressureIn,VisibilityMPH,Wind Direction,Wind SpeedMPH,Gust SpeedMPH,PrecipitationIn,Events,Conditions,WindDirDegrees,DateUTC
12:15 AM,71.6,71.6,100,30.07,10.0,Calm,Calm,-,N/A,,Mostly Cloudy,0,2013-08-24 04:15:00
12:35 AM,73.4,73.4,100,30.08,9.0,North,4.6,-,N/A,,Mostly Cloudy,10,2013-08-24 04:35:00
12:55 AM,71.6,71.6,100,30.09,4.0,Calm,Calm,-,0.01,Rain,Light Rain,0,2013-08-24 04:55:00
1:15 AM,71.6,71.6,100,30.10,5.0,Calm,Calm,-,0.01,,Mostly Cloudy,0,2013-08-24 05:15:00
1:35 AM,71.6,71.6,100,30.10,5.0,Calm,Calm,-,0.01,,Mostly Cloudy,0,2013-08-24 05:35:00
1:55 AM,69.8,69.8,100,30.10,4.0,Calm,Calm,-,0.01,,Scattered Clouds,0,2013-08-24 05:55:00
2:15 AM,69.8,69.8,100,30.09,4.0,Calm,Calm,-,N/A,,Mostly Cloudy,0,2013-08-24 06:15:00
2:35 AM,69.8,69.8,100,30.09,9.0,NNE,6.9,-,N/A,,Overcast,20,2013-08-24 06:35:00
2:55 AM,71.6,71.6,100,30.09,10.0,NNE,6.9,-,N/A,,Overcast,20,2013-08-24 06:55:00
3:15 AM,69.8,69.8,100,30.09,10.0,NNE,8.1,-,N/A,,Overcast,30,2013-08-24 07:15:00
3:35 AM,69.8,69.8,100,30.10,10.0,NNE,9.2,-,N/A,Thunderstorm,Overcast,30,2013-08-24 07:35:00
3:55 AM,69.8,69.8,100,30.11,10.0,Calm,Calm,-,N/A,,Overcast,0,2013-08-24 07:55:00
4:15 AM,68.0,68.0,100,30.12,10.0,NE,9.2,-,N/A,,Mostly Cloudy,40,2013-08-24 08:15:00
4:35 AM,68.0,68.0,100,30.13,10.0,NE,8.1,17.3,N/A,,Overcast,40,2013-08-24 08:35:00
4:55 AM,68.0,68.0,100,30.14,10.0,NE,3.5,-,N/A,,Overcast,40,2013-08-24 08:55:00
5:15 AM,68.0,68.0,100,30.14,10.0,NE,10.4,-,N/A,,Overcast,40,2013-08-24 09:15:00
5:35 AM,66.2,66.2,100,30.15,10.0,NNE,12.7,16.1,N/A,,Overcast,20,2013-08-24 09:35:00
5:55 AM,66.2,66.2,100,30.15,10.0,NNE,10.4,-,N/A,,Overcast,20,2013-08-24 09:55:00
6:15 AM,66.2,66.2,100,30.15,10.0,NNE,8.1,-,N/A,,Overcast,30,2013-08-24 10:15:00
6:35 AM,66.2,66.2,100,30.16,10.0,NE,8.1,-,N/A,,Overcast,40,2013-08-24 10:35:00
6:55 AM,66.2,66.2,100,30.16,10.0,NNE,8.1,-,N/A,,Overcast,20,2013-08-24 10:55:00
7:15 AM,66.2,66.2,100,30.18,10.0,NNE,6.9,-,N/A,,Overcast,30,2013-08-24 11:15:00
7:35 AM,66.2,66.2,100,30.18,10.0,NNE,9.2,-,N/A,,Overcast,30,2013-08-24 11:35:00
7:55 AM,66.2,66.2,100,30.19,10.0,NNE,11.5,16.1,N/A,,Overcast,30,2013-08-24 11:55:00
8:15 AM,68.0,68.0,100,30.20,10.0,NE,8.1,-,N/A,,Overcast,40,2013-08-24 12:15:00
8:35 AM,68.0,68.0,100,30.21,10.0,NNE,9.2,-,N/A,,Overcast,30,2013-08-24 12:35:00
8:55 AM,68.0,68.0,100,30.21,10.0,NE,5.8,-,N/A,,Overcast,40,2013-08-24 12:55:00
9:15 AM,68.0,66.2,94,30.22,10.0,NNE,8.1,-,N/A,,Overcast,30,2013-08-24 13:15:00
9:35 AM,69.8,66.2,88,30.22,10.0,NNE,11.5,-,N/A,Rain,Light Rain,20,2013-08-24 13:35:00
9:55 AM,71.6,66.2,83,30.23,10.0,NNE,9.2,-,N/A,Rain,Light Rain,30,2013-08-24 13:55:00
10:15 AM,73.4,66.2,78,30.23,10.0,NE,4.6,-,N/A,,Partly Cloudy,50,2013-08-24 14:15:00
10:35 AM,73.4,66.2,78,30.23,10.0,NE,5.8,-,N/A,,Partly Cloudy,40,2013-08-24 14:35:00
10:55 AM,75.2,66.2,73,30.24,10.0,NNE,9.2,-,N/A,,Clear,30,2013-08-24 14:55:00
11:15 AM,75.2,66.2,73,30.24,10.0,ENE,5.8,-,N/A,,Partly Cloudy,70,2013-08-24 15:15:00
11:35 AM,75.2,66.2,73,30.24,10.0,ENE,3.5,-,N/A,,Partly Cloudy,70,2013-08-24 15:35:00
11:55 AM,77.0,66.2,69,30.24,10.0,NE,5.8,-,N/A,,Scattered Clouds,50,2013-08-24 15:55:00
12:15 PM,78.8,66.2,65,30.24,10.0,NE,8.1,-,N/A,,Scattered Clouds,40,2013-08-24 16:15:00
12:35 PM,77.0,66.2,69,30.24,10.0,NE,6.9,-,N/A,,Scattered Clouds,50,2013-08-24 16:35:00
12:55 PM,80.6,66.2,61,30.23,10.0,NNE,9.2,-,N/A,,Partly Cloudy,30,2013-08-24 16:55:00
1:15 PM,80.6,64.4,58,30.24,10.0,NE,9.2,-,N/A,,Partly Cloudy,40,2013-08-24 17:15:00
1:35 PM,80.6,64.4,58,30.24,10.0,NE,6.9,-,N/A,,Partly Cloudy,50,2013-08-24 17:35:00
1:55 PM,80.6,64.4,58,30.23,10.0,NE,9.2,-,N/A,,Scattered Clouds,50,2013-08-24 17:55:00
2:15 PM,80.6,64.4,58,30.23,10.0,NNE,10.4,-,N/A,,Mostly Cloudy,20,2013-08-24 18:15:00
2:35 PM,82.4,64.4,54,30.23,10.0,ENE,5.8,-,N/A,,Partly Cloudy,70,2013-08-24 18:35:00
2:55 PM,82.4,64.4,54,30.23,10.0,NE,8.1,-,N/A,,Partly Cloudy,40,2013-08-24 18:55:00
3:15 PM,82.4,62.6,51,30.23,10.0,Calm,Calm,-,N/A,,Clear,0,2013-08-24 19:15:00
3:35 PM,82.4,64.4,54,30.22,10.0,NNE,6.9,-,N/A,,Partly Cloudy,30,2013-08-24 19:35:00
3:55 PM,82.4,62.6,51,30.22,10.0,NE,6.9,-,N/A,,Partly Cloudy,50,2013-08-24 19:55:00
4:15 PM,82.4,62.6,51,30.22,10.0,NE,6.9,-,N/A,,Clear,50,2013-08-24 20:15:00
4:35 PM,82.4,62.6,51,30.22,10.0,ENE,5.8,-,N/A,,Clear,60,2013-08-24 20:35:00
4:55 PM,82.4,62.6,51,30.22,10.0,NE,5.8,-,N/A,,Clear,40,2013-08-24 20:55:00
5:15 PM,82.4,60.8,48,30.22,10.0,NE,5.8,-,N/A,,Clear,40,2013-08-24 21:15:00
5:35 PM,82.4,60.8,48,30.22,10.0,ENE,4.6,-,N/A,,Partly Cloudy,60,2013-08-24 21:35:00
5:55 PM,80.6,60.8,51,30.22,10.0,ENE,3.5,-,N/A,,Clear,60,2013-08-24 21:55:00
6:15 PM,80.6,62.6,54,30.22,10.0,Calm,Calm,-,N/A,,Clear,0,2013-08-24 22:15:00
6:35 PM,78.8,64.4,61,30.22,10.0,NE,3.5,-,N/A,,Clear,40,2013-08-24 22:35:00
6:55 PM,75.2,66.2,73,30.22,10.0,Calm,Calm,-,N/A,,Clear,0,2013-08-24 22:55:00
7:15 PM,75.2,66.2,73,30.23,10.0,Calm,Calm,-,N/A,,Clear,0,2013-08-24 23:15:00
7:35 PM,71.6,68.0,88,30.23,10.0,Calm,Calm,-,N/A,,Clear,0,2013-08-24 23:35:00
7:55 PM,69.8,69.8,100,30.23,10.0,Calm,Calm,-,N/A,,Clear,0,2013-08-24 23:55:00
8:15 PM,68.0,68.0,100,30.24,10.0,Calm,Calm,-,N/A,,Clear,0,2013-08-25 00:15:00
8:35 PM,66.2,66.2,100,30.25,10.0,Calm,Calm,-,N/A,,Clear,0,2013-08-25 00:35:00
8:55 PM,66.2,66.2,100,30.25,10.0,Calm,Calm,-,N/A,,Clear,0,2013-08-25 00:55:00
9:15 PM,66.2,66.2,100,30.26,10.0,Calm,Calm,-,N/A,,Clear,0,2013-08-25 01:15:00
9:35 PM,64.4,64.4,100,30.27,10.0,Calm,Calm,-,N/A,Rain,Light Rain,0,2013-08-25 01:35:00
9:55 PM,64.4,64.4,100,30.27,10.0,Calm,Calm,-,N/A,,Clear,0,2013-08-25 01:55:00
10:15 PM,64.4,64.4,100,30.27,10.0,Calm,Calm,-,N/A,,Clear,0,2013-08-25 02:15:00
10:35 PM,64.4,64.4,100,30.28,10.0,Calm,Calm,-,N/A,,Clear,0,2013-08-25 02:35:00
10:55 PM,64.4,64.4,100,30.28,10.0,Calm,Calm,-,N/A,,Clear,0,2013-08-25 02:55:00
11:15 PM,64.4,64.4,100,30.28,10.0,Calm,Calm,-,N/A,,Clear,0,2013-08-25 03:15:00
11:35 PM,62.6,62.6,100,30.29,10.0,Calm,Calm,-,N/A,,Clear,0,2013-08-25 03:35:00
11:55 PM,62.6,62.6,100,30.29,10.0,Calm,Calm,-,N/A,,Clear,0,2013-08-25 03:55:00